RYR1RC LPPR-ELLX

Flight info

Callsign RYR1RC
Flight time 2h 9m
Altitude 24000
Route TURON P600 ASDEB/N0444F360 DCT LOTEE DCT AZFIC/N0431F340 UN741 MOKOR UN873 OBATO UM163 LEQOS DCT CTL DCT MMD
Aircraft B738/M-SADFGIJ1LRWYZ/SB1

Departure

Time 2026-05-05 15:19
Airport Francisco de Sá Carneiro Airport (LPPR)

Arrival

Time 2026-05-05 17:29
Airport Luxembourg-Findel International Airport (ELLX)
Time Latitude Longitude Altitude Speed Heading
2026-05-05 14:57 41.23792 -8.67367 243 ft 0 kts 49°
2026-05-05 15:13 41.23788 -8.67372 242 ft 2 kts 50°
2026-05-05 15:13 41.23777 -8.67393 241 ft 3 kts 63°
2026-05-05 15:13 41.23770 -8.67417 240 ft 3 kts 84°
2026-05-05 15:13 41.23771 -8.67442 239 ft 3 kts 115°
2026-05-05 15:14 41.23777 -8.67456 238 ft 3 kts 140°
2026-05-05 15:14 41.23790 -8.67467 238 ft 2 kts 168°
2026-05-05 15:14 41.23792 -8.67467 238 ft 1 kts 169°
2026-05-05 15:16 41.23790 -8.67467 238 ft 1 kts 169°
2026-05-05 15:16 41.23760 -8.67459 237 ft 9 kts 169°
2026-05-05 15:17 41.23688 -8.67441 237 ft 8 kts 169°
2026-05-05 15:17 41.23638 -8.67458 237 ft 8 kts 235°
2026-05-05 15:17 41.23622 -8.67546 232 ft 11 kts 259°
2026-05-05 15:17 41.23608 -8.67646 232 ft 11 kts 259°
2026-05-05 15:18 41.23593 -8.67743 232 ft 10 kts 258°
2026-05-05 15:18 41.23593 -8.67804 232 ft 4 kts 310°
2026-05-05 15:18 41.23614 -8.67814 231 ft 2 kts 350°
2026-05-05 15:18 41.23615 -8.67814 231 ft 2 kts 350°
2026-05-05 15:19 41.23806 -8.67862 224 ft 63 kts 348°
2026-05-05 15:19 41.24450 -8.68032 207 ft 126 kts 349°
2026-05-05 15:19 41.25438 -8.68279 497 ft 150 kts 347°
2026-05-05 15:19 41.26457 -8.68534 1220 ft 153 kts 346°
2026-05-05 15:20 41.27535 -8.68792 1923 ft 158 kts 345°
2026-05-05 15:20 41.28714 -8.69060 2290 ft 187 kts 346°
2026-05-05 15:20 41.30047 -8.69362 2696 ft 202 kts 346°
2026-05-05 15:20 41.31450 -8.69626 3312 ft 207 kts 356°
2026-05-05 15:21 41.32820 -8.68967 3983 ft 223 kts 38°
2026-05-05 15:21 41.34027 -8.67506 4273 ft 246 kts 25°
2026-05-05 15:21 41.35683 -8.67017 4739 ft 252 kts 358°
2026-05-05 15:21 41.37459 -8.66972 5397 ft 260 kts
2026-05-05 15:22 41.39255 -8.66842 6368 ft 257 kts
2026-05-05 15:22 41.41034 -8.66657 7215 ft 257 kts
2026-05-05 15:22 41.42836 -8.66432 7936 ft 261 kts
2026-05-05 15:22 41.44663 -8.66177 8675 ft 264 kts
2026-05-05 15:23 41.46494 -8.65903 9476 ft 267 kts
2026-05-05 15:23 41.48365 -8.65612 10131 ft 273 kts
2026-05-05 15:23 41.50300 -8.65304 10492 ft 292 kts
2026-05-05 15:23 41.52389 -8.64967 10734 ft 312 kts
2026-05-05 15:24 41.54579 -8.64607 11252 ft 321 kts
2026-05-05 15:24 41.56812 -8.64237 11890 ft 325 kts
2026-05-05 15:24 41.59062 -8.63864 12694 ft 326 kts
2026-05-05 15:24 41.61326 -8.63492 13447 ft 330 kts
2026-05-05 15:25 41.63621 -8.63128 14171 ft 334 kts
2026-05-05 15:25 41.65931 -8.62766 14928 ft 335 kts
2026-05-05 15:25 41.68248 -8.62404 15691 ft 336 kts
2026-05-05 15:25 41.70583 -8.62039 16434 ft 339 kts
2026-05-05 15:26 41.72935 -8.61670 17218 ft 341 kts
2026-05-05 15:26 41.75303 -8.61297 17985 ft 344 kts
2026-05-05 15:26 41.77688 -8.60921 18658 ft 346 kts
2026-05-05 15:26 41.80085 -8.60542 19329 ft 347 kts
2026-05-05 15:27 41.82492 -8.60162 19909 ft 350 kts
2026-05-05 15:27 41.84927 -8.59778 20475 ft 354 kts
2026-05-05 15:27 41.87379 -8.59390 21109 ft 356 kts
2026-05-05 15:27 41.89842 -8.58999 21754 ft 357 kts
2026-05-05 15:28 41.92319 -8.58606 22369 ft 359 kts
2026-05-05 15:28 41.94811 -8.58211 22946 ft 362 kts
2026-05-05 15:28 41.97326 -8.57814 23533 ft 365 kts
2026-05-05 15:28 41.99856 -8.57410 24035 ft 367 kts
2026-05-05 15:29 42.02407 -8.57003 24458 ft 371 kts
2026-05-05 15:29 42.04985 -8.56593 24871 ft 375 kts
2026-05-05 15:29 42.07580 -8.56180 25286 ft 378 kts
2026-05-05 15:29 42.10199 -8.55767 25780 ft 379 kts
2026-05-05 15:30 42.12824 -8.55353 26243 ft 381 kts
2026-05-05 15:30 42.15472 -8.54937 26596 ft 385 kts 360°
2026-05-05 15:30 42.18146 -8.54517 26961 ft 388 kts
2026-05-05 15:30 42.20840 -8.54092 27357 ft 391 kts
2026-05-05 15:31 42.23552 -8.53663 27745 ft 393 kts
2026-05-05 15:31 42.26278 -8.53231 28112 ft 396 kts
2026-05-05 15:31 42.29023 -8.52796 28464 ft 399 kts
2026-05-05 15:31 42.31788 -8.52357 28853 ft 401 kts
2026-05-05 15:32 42.34567 -8.51915 29241 ft 403 kts
2026-05-05 15:32 42.37362 -8.51471 29577 ft 406 kts
2026-05-05 15:32 42.40178 -8.51023 29913 ft 409 kts
2026-05-05 15:32 42.43012 -8.50572 30248 ft 411 kts
2026-05-05 15:33 42.45847 -8.50119 30663 ft 409 kts
2026-05-05 15:33 42.48663 -8.49521 31085 ft 414 kts
2026-05-05 15:33 42.51404 -8.48205 31414 ft 423 kts 18°
2026-05-05 15:33 42.54019 -8.46296 31728 ft 432 kts 26°
2026-05-05 15:34 42.56409 -8.43774 32086 ft 439 kts 33°
2026-05-05 15:34 42.58709 -8.41056 32469 ft 438 kts 34°
2026-05-05 15:34 42.60986 -8.38301 32809 ft 439 kts 34°
2026-05-05 15:34 42.63261 -8.35539 33152 ft 439 kts 34°
2026-05-05 15:35 42.65535 -8.32787 33576 ft 437 kts 34°
2026-05-05 15:35 42.67801 -8.30059 34024 ft 434 kts 34°
2026-05-05 15:35 42.70064 -8.27347 34291 ft 434 kts 34°
2026-05-05 15:35 42.72341 -8.24632 34491 ft 437 kts 34°
2026-05-05 15:36 42.74623 -8.21914 34832 ft 435 kts 34°
2026-05-05 15:36 42.76894 -8.19207 35165 ft 434 kts 34°
2026-05-05 15:36 42.79168 -8.16495 35366 ft 436 kts 35°
2026-05-05 15:36 42.81423 -8.13807 35554 ft 437 kts 35°
2026-05-05 15:37 42.83711 -8.11073 35812 ft 437 kts 35°
2026-05-05 15:37 42.85997 -8.08337 36047 ft 438 kts 35°
2026-05-05 15:37 42.88298 -8.05583 36046 ft 442 kts 36°
2026-05-05 15:38 42.92961 -7.99989 36048 ft 443 kts 36°
2026-05-05 15:38 42.97502 -7.94520 36060 ft 435 kts 36°
2026-05-05 15:39 43.02038 -7.89054 36058 ft 434 kts 36°
2026-05-05 15:39 43.06555 -7.83603 36060 ft 433 kts 36°
2026-05-05 15:40 43.11063 -7.78151 36064 ft 433 kts 36°
2026-05-05 15:40 43.15573 -7.72686 36059 ft 433 kts 36°
2026-05-05 15:41 43.20086 -7.67205 36062 ft 434 kts 36°
2026-05-05 15:41 43.24607 -7.61703 36053 ft 435 kts 36°
2026-05-05 15:42 43.29130 -7.56187 36057 ft 436 kts 37°
2026-05-05 15:42 43.33667 -7.50641 36062 ft 437 kts 37°
2026-05-05 15:43 43.38213 -7.45074 36062 ft 438 kts 37°
2026-05-05 15:43 43.42768 -7.39483 36055 ft 439 kts 37°
2026-05-05 15:44 43.47323 -7.33879 36055 ft 439 kts 37°
2026-05-05 15:44 43.51879 -7.28264 36058 ft 440 kts 37°
2026-05-05 15:45 43.56405 -7.22673 36054 ft 440 kts 37°
2026-05-05 15:45 43.60965 -7.17029 36074 ft 440 kts 38°
2026-05-05 15:46 43.65525 -7.11372 36056 ft 441 kts 38°
2026-05-05 15:46 43.70082 -7.05707 36047 ft 440 kts 38°
2026-05-05 15:47 43.74632 -7.00039 36047 ft 440 kts 38°
2026-05-05 15:47 43.79168 -6.94375 36043 ft 439 kts 38°
2026-05-05 15:48 43.83701 -6.88705 36051 ft 439 kts 38°
2026-05-05 15:48 43.88225 -6.83033 36044 ft 438 kts 39°
2026-05-05 15:49 43.92746 -6.77354 36041 ft 438 kts 39°
2026-05-05 15:49 43.97262 -6.71667 36034 ft 438 kts 39°
2026-05-05 15:50 44.01776 -6.65971 36031 ft 438 kts 39°
2026-05-05 15:50 44.06256 -6.60306 36038 ft 438 kts 39°
2026-05-05 15:51 44.10767 -6.54590 36027 ft 439 kts 39°
2026-05-05 15:51 44.15275 -6.48865 36025 ft 439 kts 39°
2026-05-05 15:52 44.19781 -6.43130 36034 ft 439 kts 39°
2026-05-05 15:52 44.24290 -6.37379 36022 ft 439 kts 40°
2026-05-05 15:53 44.28798 -6.31616 36013 ft 440 kts 40°
2026-05-05 15:53 44.33305 -6.25842 36023 ft 440 kts 40°
2026-05-05 15:54 44.37804 -6.20065 36015 ft 440 kts 40°
2026-05-05 15:54 44.42306 -6.14273 36020 ft 440 kts 40°
2026-05-05 15:55 44.46803 -6.08474 36035 ft 439 kts 40°
2026-05-05 15:55 44.51298 -6.02664 36022 ft 440 kts 40°
2026-05-05 15:56 44.55789 -5.96847 36011 ft 440 kts 41°
2026-05-05 15:56 44.60276 -5.91022 36011 ft 439 kts 41°
2026-05-05 15:57 44.64760 -5.85190 36008 ft 439 kts 41°
2026-05-05 15:57 44.69200 -5.79287 36004 ft 440 kts 42°
2026-05-05 15:58 44.73567 -5.73283 35998 ft 439 kts 42°
2026-05-05 15:58 44.77931 -5.67258 36006 ft 440 kts 43°
2026-05-05 15:59 44.82303 -5.61233 36003 ft 440 kts 43°
2026-05-05 15:59 44.86648 -5.55245 36010 ft 440 kts 43°
2026-05-05 16:00 44.90311 -5.50190 36009 ft 439 kts 43°
2026-05-05 16:00 44.95384 -5.43175 36000 ft 439 kts 42°
2026-05-05 16:01 44.99031 -5.38117 36001 ft 439 kts 43°
2026-05-05 16:01 45.03381 -5.32068 35998 ft 439 kts 41°
2026-05-05 16:02 45.07727 -5.26016 35999 ft 438 kts 43°
2026-05-05 16:02 45.12065 -5.19959 35985 ft 438 kts 43°
2026-05-05 16:03 45.16393 -5.13899 35986 ft 437 kts 42°
2026-05-05 16:03 45.20689 -5.07885 35983 ft 437 kts 43°
2026-05-05 16:04 45.25002 -5.01824 35988 ft 436 kts 42°
2026-05-05 16:04 45.29312 -4.95753 35985 ft 436 kts 43°
2026-05-05 16:05 45.33619 -4.89672 35983 ft 437 kts 43°
2026-05-05 16:05 45.37928 -4.83578 35981 ft 437 kts 45°
2026-05-05 16:06 45.42236 -4.77469 35984 ft 437 kts 43°
2026-05-05 16:06 45.46545 -4.71343 35979 ft 438 kts 43°
2026-05-05 16:07 45.50855 -4.65201 35978 ft 438 kts 45°
2026-05-05 16:07 45.55170 -4.59039 35974 ft 439 kts 44°
2026-05-05 16:08 45.59489 -4.52860 35974 ft 440 kts 44°
2026-05-05 16:08 45.63810 -4.46662 35969 ft 440 kts 44°
2026-05-05 16:09 45.68127 -4.40453 35967 ft 441 kts 44°
2026-05-05 16:09 45.72449 -4.34227 35966 ft 441 kts 45°
2026-05-05 16:10 45.76767 -4.27988 35959 ft 441 kts 45°
2026-05-05 16:10 45.81080 -4.21744 35955 ft 441 kts 44°
2026-05-05 16:11 45.85386 -4.15497 35957 ft 440 kts 44°
2026-05-05 16:12 45.93967 -4.02998 35959 ft 438 kts 45°
2026-05-05 16:13 46.04628 -3.87388 35950 ft 437 kts 45°
2026-05-05 16:13 46.08848 -3.81185 35949 ft 436 kts 45°
2026-05-05 16:14 46.17327 -3.68675 35943 ft 436 kts 45°
2026-05-05 16:15 46.25792 -3.56128 35939 ft 436 kts 46°
2026-05-05 16:16 46.34251 -3.43532 35940 ft 436 kts 46°
2026-05-05 16:17 46.40586 -3.34058 35925 ft 436 kts 46°
2026-05-05 16:18 46.46910 -3.24566 35930 ft 436 kts 46°
2026-05-05 16:19 46.53225 -3.15055 35923 ft 436 kts 47°
2026-05-05 16:19 46.58911 -3.04850 35929 ft 433 kts 60°
2026-05-05 16:20 46.64881 -2.89664 35916 ft 432 kts 60°
2026-05-05 16:22 46.72414 -2.70720 35914 ft 432 kts 60°
2026-05-05 16:23 46.78429 -2.55536 35910 ft 433 kts 62°
2026-05-05 16:23 46.82942 -2.44092 35905 ft 434 kts 61°
2026-05-05 16:24 46.85930 -2.36484 35901 ft 435 kts 61°
2026-05-05 16:25 46.90684 -2.25152 35903 ft 437 kts 59°
2026-05-05 16:25 46.95499 -2.13808 35904 ft 438 kts 59°
2026-05-05 16:26 47.02523 -1.99267 35880 ft 442 kts 41°
2026-05-05 16:27 47.07428 -1.93830 35888 ft 442 kts 38°
2026-05-05 16:27 47.12380 -1.88492 35905 ft 441 kts 38°
2026-05-05 16:28 47.17285 -1.83057 35898 ft 442 kts 38°
2026-05-05 16:28 47.22210 -1.77617 35876 ft 442 kts 39°
2026-05-05 16:29 47.27072 -1.72261 35880 ft 432 kts 38°
2026-05-05 16:29 47.31880 -1.66935 35887 ft 432 kts 39°
2026-05-05 16:30 47.36318 -1.61027 35882 ft 429 kts 53°
2026-05-05 16:30 47.39973 -1.54070 35886 ft 430 kts 54°
2026-05-05 16:31 47.43611 -1.47047 35881 ft 431 kts 54°
2026-05-05 16:31 47.47290 -1.40020 35885 ft 433 kts 54°
2026-05-05 16:32 47.50998 -1.32971 35874 ft 435 kts 54°
2026-05-05 16:32 47.54687 -1.25949 35882 ft 435 kts 54°
2026-05-05 16:33 47.58402 -1.18855 35876 ft 436 kts 54°
2026-05-05 16:33 47.62112 -1.11752 35883 ft 435 kts 54°
2026-05-05 16:34 47.65811 -1.04651 35873 ft 435 kts 54°
2026-05-05 16:34 47.69498 -0.97555 35878 ft 434 kts 54°
2026-05-05 16:35 47.73174 -0.90462 35871 ft 433 kts 54°
2026-05-05 16:35 47.76844 -0.83372 35864 ft 432 kts 54°
2026-05-05 16:36 47.80502 -0.76290 35865 ft 431 kts 54°
2026-05-05 16:36 47.84145 -0.69217 35877 ft 430 kts 54°
2026-05-05 16:37 47.87780 -0.62140 35884 ft 430 kts 54°
2026-05-05 16:37 47.91380 -0.55114 35881 ft 429 kts 54°
2026-05-05 16:38 47.94995 -0.48039 35890 ft 429 kts 54°
2026-05-05 16:38 47.98613 -0.40939 35888 ft 430 kts 55°
2026-05-05 16:39 48.02239 -0.33804 35895 ft 432 kts 55°
2026-05-05 16:39 48.05876 -0.26626 35873 ft 434 kts 56°
2026-05-05 16:40 48.08788 -0.18813 35899 ft 430 kts 67°
2026-05-05 16:40 48.11287 -0.10670 35879 ft 431 kts 67°
2026-05-05 16:41 48.13789 -0.02503 35871 ft 432 kts 67°
2026-05-05 16:41 48.16311 0.05633 35887 ft 429 kts 67°
2026-05-05 16:42 48.18826 0.13722 35877 ft 427 kts 67°
2026-05-05 16:42 48.21332 0.21795 35890 ft 428 kts 68°
2026-05-05 16:43 48.23833 0.29880 35871 ft 426 kts 67°
2026-05-05 16:43 48.26319 0.37943 35871 ft 425 kts 67°
2026-05-05 16:44 48.28795 0.46002 35852 ft 426 kts 67°
2026-05-05 16:44 48.31272 0.54091 35858 ft 427 kts 67°
2026-05-05 16:45 48.33755 0.62225 35849 ft 428 kts 67°
2026-05-05 16:45 48.36228 0.70351 35853 ft 427 kts 67°
2026-05-05 16:46 48.38690 0.78469 35862 ft 426 kts 67°
2026-05-05 16:46 48.40730 0.85220 35865 ft 426 kts 67°
2026-05-05 16:47 48.43180 0.93345 35857 ft 426 kts 68°
2026-05-05 16:47 48.45622 1.01476 35853 ft 426 kts 68°
2026-05-05 16:48 48.48061 1.09620 35837 ft 427 kts 68°
2026-05-05 16:48 48.50494 1.17772 35848 ft 426 kts 68°
2026-05-05 16:49 48.52920 1.25929 35836 ft 426 kts 68°
2026-05-05 16:49 48.55342 1.34099 35843 ft 427 kts 67°
2026-05-05 16:50 48.57775 1.42336 35812 ft 430 kts 68°
2026-05-05 16:50 48.60204 1.50580 35825 ft 429 kts 68°
2026-05-05 16:51 48.62616 1.58798 35816 ft 427 kts 68°
2026-05-05 16:51 48.64975 1.67009 35827 ft 425 kts 70°
2026-05-05 16:52 48.67028 1.75362 35806 ft 423 kts 72°
2026-05-05 16:52 48.69014 1.83723 35819 ft 422 kts 72°
2026-05-05 16:53 48.71010 1.92013 35831 ft 422 kts 72°
2026-05-05 16:53 48.73046 2.00427 35836 ft 424 kts 72°
2026-05-05 16:54 48.75059 2.08776 35839 ft 426 kts 72°
2026-05-05 16:54 48.77197 2.17165 35834 ft 428 kts 69°
2026-05-05 16:55 48.79484 2.25569 35830 ft 429 kts 70°
2026-05-05 16:55 48.81727 2.33888 35831 ft 430 kts 70°
2026-05-05 16:56 48.83966 2.42310 35827 ft 430 kts 70°
2026-05-05 16:56 48.86195 2.50747 35832 ft 431 kts 70°
2026-05-05 16:57 48.88421 2.59200 35828 ft 431 kts 70°
2026-05-05 16:57 48.90641 2.67657 35822 ft 430 kts 70°
2026-05-05 16:58 48.92848 2.76094 35821 ft 429 kts 70°
2026-05-05 16:58 48.95042 2.84514 35808 ft 427 kts 70°
2026-05-05 16:59 48.97224 2.92919 35812 ft 427 kts 70°
2026-05-05 16:59 48.99396 3.01313 35809 ft 426 kts 71°
2026-05-05 17:00 49.01555 3.09691 35799 ft 425 kts 71°
2026-05-05 17:00 49.03708 3.18075 35821 ft 425 kts 71°
2026-05-05 17:01 49.05858 3.26481 35798 ft 426 kts 71°
2026-05-05 17:01 49.08006 3.34908 35814 ft 426 kts 71°
2026-05-05 17:02 49.10153 3.43362 35802 ft 427 kts 71°
2026-05-05 17:02 49.12291 3.51811 35808 ft 427 kts 71°
2026-05-05 17:03 49.14332 3.60327 35811 ft 426 kts 76°
2026-05-05 17:03 49.15856 3.69129 35334 ft 432 kts 78°
2026-05-05 17:04 49.16570 3.73572 34799 ft 430 kts 78°
2026-05-05 17:04 49.17285 3.78004 34265 ft 430 kts 78°
2026-05-05 17:04 49.18009 3.82436 33689 ft 430 kts 78°
2026-05-05 17:04 49.18732 3.86813 33022 ft 430 kts 78°
2026-05-05 17:05 49.19467 3.91227 32408 ft 429 kts 78°
2026-05-05 17:05 49.20216 3.95706 31779 ft 428 kts 78°
2026-05-05 17:05 49.20943 4.00053 31143 ft 428 kts 78°
2026-05-05 17:05 49.21678 4.04459 30509 ft 428 kts 77°
2026-05-05 17:06 49.22411 4.08858 29992 ft 425 kts 77°
2026-05-05 17:06 49.23135 4.13213 29447 ft 421 kts 77°
2026-05-05 17:06 49.23850 4.17524 28973 ft 415 kts 77°
2026-05-05 17:06 49.24554 4.21785 28487 ft 410 kts 77°
2026-05-05 17:07 49.25246 4.25982 28016 ft 405 kts 77°
2026-05-05 17:07 49.25930 4.30146 27541 ft 401 kts 77°
2026-05-05 17:07 49.26606 4.34272 27055 ft 398 kts 77°
2026-05-05 17:07 49.27275 4.38363 26600 ft 395 kts 77°
2026-05-05 17:08 49.27938 4.42428 26124 ft 392 kts 77°
2026-05-05 17:08 49.28595 4.46470 25657 ft 390 kts 77°
2026-05-05 17:08 49.29246 4.50479 25205 ft 387 kts 78°
2026-05-05 17:08 49.29893 4.54471 24763 ft 385 kts 78°
2026-05-05 17:09 49.30533 4.58439 24309 ft 383 kts 78°
2026-05-05 17:09 49.31170 4.62386 23866 ft 381 kts 78°
2026-05-05 17:09 49.31802 4.66321 23422 ft 380 kts 78°
2026-05-05 17:09 49.32431 4.70243 22890 ft 378 kts 78°
2026-05-05 17:10 49.33056 4.74145 22410 ft 376 kts 78°
2026-05-05 17:10 49.33676 4.78028 21959 ft 374 kts 78°
2026-05-05 17:10 49.34291 4.81891 21517 ft 373 kts 78°
2026-05-05 17:10 49.34895 4.85691 21087 ft 372 kts 78°
2026-05-05 17:11 49.35515 4.89603 20640 ft 373 kts 78°
2026-05-05 17:11 49.36116 4.93406 20194 ft 373 kts 78°
2026-05-05 17:11 49.36727 4.97278 19746 ft 373 kts 78°
2026-05-05 17:11 49.37336 5.01142 19309 ft 372 kts 78°
2026-05-05 17:12 49.37941 5.04988 18874 ft 370 kts 78°
2026-05-05 17:12 49.38543 5.08826 18457 ft 369 kts 78°
2026-05-05 17:12 49.39144 5.12641 18006 ft 368 kts 77°
2026-05-05 17:12 49.39874 5.16410 17518 ft 368 kts 73°
2026-05-05 17:13 49.40695 5.20123 17046 ft 367 kts 72°
2026-05-05 17:13 49.41534 5.23815 16593 ft 365 kts 72°
2026-05-05 17:13 49.42363 5.27486 16156 ft 362 kts 72°
2026-05-05 17:13 49.43174 5.31137 15728 ft 360 kts 73°
2026-05-05 17:14 49.43972 5.34773 15303 ft 358 kts 73°
2026-05-05 17:14 49.44760 5.38397 14880 ft 356 kts 73°
2026-05-05 17:14 49.45538 5.41994 14464 ft 354 kts 73°
2026-05-05 17:14 49.46310 5.45571 14182 ft 348 kts 73°
2026-05-05 17:15 49.47061 5.49053 14038 ft 340 kts 73°
2026-05-05 17:15 49.47795 5.52463 13870 ft 332 kts 73°
2026-05-05 17:15 49.48491 5.55789 13729 ft 323 kts 77°
2026-05-05 17:15 49.48665 5.59174 13396 ft 317 kts 97°
2026-05-05 17:16 49.48461 5.62535 13060 ft 314 kts 97°
2026-05-05 17:16 49.48262 5.65876 12721 ft 313 kts 97°
2026-05-05 17:16 49.48081 5.69197 12403 ft 311 kts 97°
2026-05-05 17:16 49.47910 5.72489 12102 ft 308 kts 97°
2026-05-05 17:17 49.47744 5.75765 11793 ft 306 kts 97°
2026-05-05 17:17 49.47579 5.79010 11489 ft 304 kts 97°
2026-05-05 17:17 49.47415 5.82219 11081 ft 305 kts 97°
2026-05-05 17:17 49.47249 5.85463 10760 ft 304 kts 97°
2026-05-05 17:18 49.47082 5.88695 10452 ft 303 kts 97°
2026-05-05 17:18 49.46917 5.91909 10135 ft 302 kts 97°
2026-05-05 17:18 49.46752 5.95105 9967 ft 295 kts 97°
2026-05-05 17:18 49.46590 5.98215 9810 ft 290 kts 97°
2026-05-05 17:19 49.46427 6.01300 9501 ft 290 kts 97°
2026-05-05 17:19 49.46537 6.04381 9200 ft 292 kts 76°
2026-05-05 17:19 49.47203 6.07308 8962 ft 289 kts 72°
2026-05-05 17:19 49.47893 6.10216 8661 ft 289 kts 72°
2026-05-05 17:20 49.48572 6.13113 8390 ft 288 kts 72°
2026-05-05 17:20 49.49242 6.16009 8106 ft 288 kts 72°
2026-05-05 17:20 49.49906 6.18913 7825 ft 288 kts 72°
2026-05-05 17:20 49.50568 6.21831 7540 ft 289 kts 72°
2026-05-05 17:21 49.51227 6.24748 7238 ft 290 kts 72°
2026-05-05 17:21 49.51889 6.27682 6964 ft 291 kts 72°
2026-05-05 17:21 49.52798 6.30466 6629 ft 294 kts 53°
2026-05-05 17:22 49.55407 6.35147 6207 ft 284 kts 50°
2026-05-05 17:22 49.56688 6.37446 5928 ft 283 kts 50°
2026-05-05 17:22 49.57957 6.39757 5640 ft 281 kts 50°
2026-05-05 17:22 49.59208 6.42056 5360 ft 279 kts 51°
2026-05-05 17:23 49.60441 6.44334 5168 ft 273 kts 51°
2026-05-05 17:23 49.61637 6.46549 5046 ft 265 kts 51°
2026-05-05 17:23 49.62835 6.48658 4919 ft 258 kts 41°
2026-05-05 17:23 49.64391 6.49865 4826 ft 247 kts
2026-05-05 17:24 49.66033 6.49777 4738 ft 230 kts 345°
2026-05-05 17:24 49.67468 6.48881 4629 ft 216 kts 329°
2026-05-05 17:24 49.68749 6.47763 4439 ft 208 kts 328°
2026-05-05 17:24 49.69959 6.46632 4273 ft 199 kts 320°
2026-05-05 17:25 49.70711 6.44971 4105 ft 183 kts 280°
2026-05-05 17:25 49.70767 6.43711 4023 ft 176 kts 259°
2026-05-05 17:25 49.70182 6.41412 3915 ft 172 kts 239°
2026-05-05 17:25 49.69582 6.39788 3718 ft 176 kts 238°
2026-05-05 17:26 49.68977 6.38175 3498 ft 175 kts 238°
2026-05-05 17:26 49.68369 6.36549 3261 ft 174 kts 238°
2026-05-05 17:26 49.67769 6.34941 3033 ft 171 kts 238°
2026-05-05 17:26 49.67181 6.33363 2804 ft 170 kts 238°
2026-05-05 17:27 49.66592 6.31782 2573 ft 168 kts 239°
2026-05-05 17:27 49.66029 6.30268 2386 ft 155 kts 239°
2026-05-05 17:27 49.65499 6.28843 2148 ft 152 kts 239°
2026-05-05 17:27 49.64979 6.27446 1924 ft 149 kts 239°
2026-05-05 17:28 49.64464 6.26063 1719 ft 149 kts 239°
2026-05-05 17:28 49.63946 6.24657 1440 ft 153 kts 240°
2026-05-05 17:28 49.63421 6.23246 1218 ft 150 kts 240°
2026-05-05 17:28 49.62965 6.22015 1213 ft 103 kts 240°
2026-05-05 17:29 49.62720 6.21354 1229 ft 32 kts 240°
2026-05-05 17:29 49.62676 6.21162 1232 ft 9 kts 290°
2026-05-05 17:29 49.62727 6.21162 1232 ft 9 kts 33°
2026-05-05 17:29 49.62788 6.21224 1229 ft 12 kts 33°
2026-05-05 17:30 49.62859 6.21288 1227 ft 13 kts 29°
2026-05-05 17:30 49.62930 6.21330 1228 ft 10 kts 13°
2026-05-05 17:30 49.62992 6.21380 1227 ft 10 kts 52°
2026-05-05 17:30 49.63027 6.21489 1226 ft 13 kts 65°
2026-05-05 17:31 49.63057 6.21586 1225 ft 7 kts 64°
2026-05-05 17:31 49.63077 6.21648 1225 ft 6 kts 62°
2026-05-05 17:31 49.63099 6.21714 1224 ft 8 kts 65°
2026-05-05 17:31 49.63141 6.21769 1226 ft 9 kts 354°
2026-05-05 17:32 49.63193 6.21728 1228 ft 8 kts 329°
2026-05-05 17:32 49.63241 6.21705 1229 ft 7 kts 34°
2026-05-05 17:32 49.63259 6.21751 1229 ft 3 kts 60°
2026-05-05 17:32 49.63260 6.21753 1229 ft 0 kts 60°
2026-05-05 17:33 49.63261 6.21755 1229 ft 0 kts 60°